Chignik, AK

11:47 AM AKST on January 18, 2017 (GMT -0900)
Chignik

Weather History for PAJC - March, 2014

Change the Weather History Date:

Friday, March 7, 2014

  Actual Average Record
Temperature  
Mean Temperature 36 °F -  
Max Temperature 39 °F 35 °F 57 °F (2001)
Min Temperature 33 °F 27 °F 14 °F (2007)
Degree Days  
Heating Degree Days 29    
Moisture  
Dew Point 27 °F    
Average Humidity 70    
Maximum Humidity 87    
Minimum Humidity 56    
Precipitation  
Precipitation 0.01 in - - ()
Sea Level Pressure  
Sea Level Pressure 29.40 in    
Wind  
Wind Speed 10 mph (NE)    
Max Wind Speed 18 mph    
Max Gust Speed 29 mph    
Visibility 10 miles    
Events      
Averages and records for this station are not official NWS values.
T = Trace of Precipitation, MM = Missing Value Source: NWS Daily Summary

Daily Weather History Graph

Daily Weather History Graph

Search for Another Location

Airport or City:

Trip Planner

Search our weather history database for the weather conditions in past years. The results will help you decide how hot, cold, wet, or windy it might be!

Date:

Astronomy

Mar. 07, 2014 Rise Set
Actual Time 8:09 AM AKST 7:20 PM AKST
Civil Twilight 7:31 AM AKST 7:58 PM AKST
Nautical Twilight 6:48 AM AKST 8:41 PM AKST
Astronomical Twilight 6:04 AM AKST 9:26 PM AKST
Moon 11:02 AM AKST (3/7) 2:43 AM AKST (3/7)
Length of Visible Light 12h 26m
Length of Day
11h 11m
Waxing Crescent, 43% of the Moon is Illuminated
Mar 7
Waxing Crescent
Mar 8
First Quarter
Mar 16
Full
Mar 23
Last Quarter
Mar 30
New

Hourly Weather History & Observations

Time (AKST) Temp. Windchill Dew Point Humidity Pressure Visibility Wind Dir Wind Speed Gust Speed Precip Events Conditions
12:16 AM 35.6 °F 27.5 °F 30.2 °F 81% 29.48 in 10.0 mi ENE 11.5 mph - N/A   Overcast
12:36 AM 35.6 °F 27.1 °F 30.2 °F 81% 29.48 in 10.0 mi ENE 12.7 mph - N/A   Mostly Cloudy
12:56 AM 35.6 °F 27.1 °F 28.4 °F 75% 29.48 in 10.0 mi ENE 12.7 mph 20.7 mph N/A   Mostly Cloudy
1:16 AM 35.6 °F 27.5 °F 30.2 °F 81% 29.48 in 10.0 mi NE 11.5 mph 16.1 mph N/A   Overcast
1:36 AM 35.6 °F 27.5 °F 30.2 °F 81% 29.48 in 10.0 mi ENE 11.5 mph 19.6 mph N/A   Overcast
1:56 AM 35.6 °F 27.5 °F 28.4 °F 75% 29.47 in 10.0 mi ENE 11.5 mph 16.1 mph N/A   Mostly Cloudy
2:16 AM 35.6 °F 27.1 °F 30.2 °F 81% 29.47 in 10.0 mi ENE 12.7 mph - N/A   Overcast
2:36 AM 35.6 °F 27.5 °F 30.2 °F 81% 29.48 in 10.0 mi NE 11.5 mph 20.7 mph N/A   Mostly Cloudy
2:56 AM 35.6 °F 26.6 °F 30.2 °F 81% 29.47 in 10.0 mi ENE 13.8 mph - N/A   Overcast
3:16 AM 33.8 °F 25.8 °F 30.2 °F 87% 29.48 in 5.0 mi ENE 10.4 mph 16.1 mph 0.01 in   Mostly Cloudy
3:36 AM 35.6 °F 26.2 °F 28.4 °F 75% 29.47 in 10.0 mi NE 15.0 mph 18.4 mph 0.01 in   Overcast
3:56 AM 35.6 °F 26.6 °F 30.2 °F 81% 29.47 in 10.0 mi NE 13.8 mph 17.3 mph 0.01 in   Overcast
4:16 AM 35.6 °F 27.5 °F 28.4 °F 75% 29.46 in 10.0 mi NE 11.5 mph 19.6 mph N/A   Overcast
4:36 AM 35.6 °F 25.2 °F 30.2 °F 81% 29.46 in 10.0 mi NE 18.4 mph 24.2 mph N/A   Overcast
4:56 AM 35.6 °F 25.2 °F 30.2 °F 81% 29.46 in 10.0 mi NE 18.4 mph 23.0 mph N/A   Overcast
5:16 AM 35.6 °F 25.9 °F 30.2 °F 81% 29.45 in 10.0 mi NE 16.1 mph 24.2 mph N/A   Mostly Cloudy
5:36 AM 35.6 °F 25.5 °F 30.2 °F 81% 29.45 in 10.0 mi ENE 17.3 mph 28.8 mph N/A   Overcast
5:56 AM 35.6 °F 26.2 °F 28.4 °F 75% 29.45 in 10.0 mi NE 15.0 mph 21.9 mph N/A   Mostly Cloudy
6:16 AM 35.6 °F 28.0 °F 30.2 °F 81% 29.46 in 10.0 mi ENE 10.4 mph 19.6 mph N/A   Mostly Cloudy
6:36 AM 35.6 °F 28.6 °F 28.4 °F 75% 29.46 in 10.0 mi ENE 9.2 mph 21.9 mph N/A   Mostly Cloudy
6:56 AM 35.6 °F 29.9 °F 30.2 °F 81% 29.45 in 10.0 mi ENE 6.9 mph 17.3 mph N/A   Mostly Cloudy
7:16 AM 35.6 °F 29.9 °F 28.4 °F 75% 29.45 in 10.0 mi East 6.9 mph - N/A   Overcast
7:36 AM 35.6 °F 31.7 °F 28.4 °F 75% 29.45 in 10.0 mi East 4.6 mph - N/A   Overcast
7:56 AM 35.6 °F 30.7 °F 28.4 °F 75% 29.45 in 10.0 mi East 5.8 mph - N/A   Overcast
8:16 AM 35.6 °F 30.7 °F 26.6 °F 70% 29.45 in 10.0 mi East 5.8 mph - N/A   Overcast
8:36 AM 35.6 °F 29.2 °F 24.8 °F 65% 29.44 in 10.0 mi East 8.1 mph - N/A   Overcast
8:56 AM 35.6 °F 29.9 °F 24.8 °F 65% 29.44 in 10.0 mi East 6.9 mph - N/A   Overcast
9:16 AM 35.6 °F 28.6 °F 24.8 °F 65% 29.45 in 10.0 mi ENE 9.2 mph - N/A   Overcast
9:36 AM 35.6 °F 28.6 °F 24.8 °F 65% 29.44 in 10.0 mi East 9.2 mph - N/A   Overcast
9:56 AM 35.6 °F 28.6 °F 24.8 °F 65% 29.44 in 10.0 mi East 9.2 mph - N/A   Overcast
10:16 AM 35.6 °F 29.9 °F 24.8 °F 65% 29.44 in 10.0 mi ENE 6.9 mph - N/A   Overcast
10:36 AM 35.6 °F 29.2 °F 24.8 °F 65% 29.44 in 10.0 mi ENE 8.1 mph - N/A   Overcast
10:56 AM 37.4 °F 29.8 °F 24.8 °F 60% 29.44 in 10.0 mi NE 11.5 mph - N/A   Overcast
11:16 AM 37.4 °F 29.3 °F 26.6 °F 65% 29.44 in 10.0 mi NE 12.7 mph - N/A   Overcast
11:36 AM 37.4 °F 30.3 °F 26.6 °F 65% 29.44 in 10.0 mi NE 10.4 mph - N/A   Overcast
11:56 AM 37.4 °F 29.8 °F 26.6 °F 65% 29.44 in 10.0 mi NE 11.5 mph 16.1 mph N/A   Overcast
12:16 PM 37.4 °F 30.8 °F 26.6 °F 65% 29.43 in 10.0 mi ENE 9.2 mph - N/A   Overcast
12:36 PM 37.4 °F 31.4 °F 26.6 °F 65% 29.43 in 10.0 mi NE 8.1 mph - N/A   Overcast
12:56 PM 37.4 °F 29.8 °F 26.6 °F 65% 29.42 in 10.0 mi NE 11.5 mph - N/A   Overcast
1:16 PM 37.4 °F 31.4 °F 26.6 °F 65% 29.42 in 10.0 mi NE 8.1 mph - N/A   Overcast
1:36 PM 37.4 °F 30.8 °F 26.6 °F 65% 29.41 in 10.0 mi NE 9.2 mph - N/A   Overcast
1:56 PM 37.4 °F 31.4 °F 26.6 °F 65% 29.40 in 10.0 mi NE 8.1 mph - N/A   Overcast
2:16 PM 37.4 °F 32.8 °F 26.6 °F 65% 29.39 in 10.0 mi NE 5.8 mph - N/A   Overcast
2:36 PM 37.4 °F 31.4 °F 26.6 °F 65% 29.38 in 10.0 mi ENE 8.1 mph - N/A   Overcast
2:56 PM 37.4 °F 32.1 °F 26.6 °F 65% 29.38 in 10.0 mi NE 6.9 mph - N/A   Overcast
3:16 PM 37.4 °F 32.1 °F 26.6 °F 65% 29.37 in 10.0 mi NE 6.9 mph - N/A   Overcast
3:36 PM 37.4 °F 33.8 °F 24.8 °F 60% 29.37 in 10.0 mi ENE 4.6 mph - N/A   Overcast
3:56 PM 39.2 °F 35.0 °F 24.8 °F 56% 29.36 in 10.0 mi NNE 5.8 mph - N/A   Overcast
4:16 PM 37.4 °F - 24.8 °F 60% 29.36 in 10.0 mi Calm Calm - N/A   Overcast
4:36 PM 37.4 °F - 24.8 °F 60% 29.36 in 10.0 mi Calm Calm - N/A   Overcast
4:56 PM 37.4 °F - 24.8 °F 60% 29.35 in 10.0 mi Calm Calm - N/A   Overcast
5:16 PM 37.4 °F - 24.8 °F 60% 29.35 in 10.0 mi Calm Calm - N/A   Overcast
5:36 PM 37.4 °F - 23.0 °F 56% 29.34 in 10.0 mi Calm Calm - N/A   Overcast
5:56 PM 37.4 °F - 23.0 °F 56% 29.33 in 10.0 mi Calm Calm - N/A   Overcast
6:16 PM 37.4 °F - 23.0 °F 56% 29.33 in 10.0 mi Calm Calm - N/A   Overcast
6:36 PM 37.4 °F - 24.8 °F 60% 29.33 in 10.0 mi Calm Calm - N/A   Overcast
6:56 PM 37.4 °F - 24.8 °F 60% 29.33 in 10.0 mi Calm Calm - N/A   Overcast
7:16 PM 37.4 °F - 26.6 °F 65% 29.32 in 10.0 mi Calm Calm - N/A   Overcast
7:36 PM 35.6 °F - 26.6 °F 70% 29.32 in 10.0 mi Calm Calm - N/A   Overcast
7:56 PM 35.6 °F - 24.8 °F 65% 29.32 in 10.0 mi Calm Calm - N/A   Overcast
8:16 PM 35.6 °F - 26.6 °F 70% 29.31 in 10.0 mi Calm Calm - N/A   Overcast
8:36 PM 35.6 °F 29.2 °F 28.4 °F 75% 29.32 in 10.0 mi NNE 8.1 mph - N/A   Overcast
8:56 PM 35.6 °F 29.2 °F 24.8 °F 65% 29.31 in 10.0 mi NNE 8.1 mph - N/A   Overcast
9:16 PM 35.6 °F 29.9 °F 26.6 °F 70% 29.31 in 10.0 mi NNE 6.9 mph - N/A   Overcast
9:36 PM 35.6 °F 28.6 °F 26.6 °F 70% 29.31 in 10.0 mi North 9.2 mph - N/A   Mostly Cloudy
9:56 PM 35.6 °F 28.6 °F 26.6 °F 70% 29.31 in 10.0 mi North 9.2 mph - N/A   Partly Cloudy
10:16 PM 35.6 °F 29.9 °F 26.6 °F 70% 29.31 in 10.0 mi North 6.9 mph - N/A   Mostly Cloudy
10:36 PM 33.8 °F 27.0 °F 26.6 °F 75% 29.31 in 10.0 mi North 8.1 mph - N/A   Overcast
10:56 PM 33.8 °F - 24.8 °F 70% 29.31 in 10.0 mi Calm Calm - N/A   Overcast
11:16 PM 33.8 °F 30.8 °F 23.0 °F 65% 29.30 in 10.0 mi NW 3.5 mph - N/A   Overcast
11:36 PM 33.8 °F 28.6 °F 24.8 °F 70% 29.30 in 10.0 mi West 5.8 mph - N/A   Overcast
11:56 PM 33.8 °F 26.4 °F 23.0 °F 65% 29.30 in 10.0 mi WSW 9.2 mph - N/A   Overcast